contact:dominique.lefevre@mio.osupytheas.fr, maurice.libes@osupytheas.fr, didier.mallarino@osupytheas.fr
Project:EMSO http://www.emso-fr.org/EMSO-France
Depth: 2436.0 m
Title:EMSO Ligure Ouest : Data MII capteur CSTAR
DateTime,Latitude,Longitude,Instrument_Serial,Reference_Counts,Signal_Counts,Corrected_Signal_raw_counts,Calculated_Beam_c_inverse_meters,Internal_thermistor_counts
DateTime,Latitude,Longitude,Instrument_Serial,Reference_Counts,Signal_Counts,Corrected_Signal_raw_counts,Calculated_Beam_c_inverse_meters,Internal_thermistor_counts
2022-12-28T00:00:14,42.805,6.029,CST-1368DR,4430,4935,11841,01.107,551
2022-12-28T00:03:15,42.805,6.029,CST-1368DR,4430,4936,11845,01.106,551
2022-12-28T00:06:17,42.805,6.029,CST-1368DR,4430,4936,11843,01.106,551
2022-12-28T00:09:18,42.805,6.029,CST-1368DR,4431,4939,11848,01.105,551
2022-12-28T00:12:20,42.805,6.029,CST-1368DR,4430,4937,11847,01.105,551
2022-12-28T00:15:21,42.805,6.029,CST-1368DR,4431,4936,11842,01.107,551
2022-12-28T00:18:23,42.805,6.029,CST-1368DR,4430,4937,11846,01.105,551
2022-12-28T00:21:25,42.805,6.029,CST-1368DR,4430,4934,11840,01.107,551
2022-12-28T00:24:26,42.805,6.029,CST-1368DR,4431,4935,11839,01.108,551
2022-12-28T00:27:28,42.805,6.029,CST-1368DR,4430,4935,11842,01.107,551
2022-12-28T00:30:29,42.805,6.029,CST-1368DR,4430,4938,11848,01.105,551
2022-12-28T00:33:31,42.805,6.029,CST-1368DR,4431,4934,11837,01.108,551
2022-12-28T00:36:33,42.805,6.029,CST-1368DR,4430,4935,11841,01.107,551
2022-12-28T00:39:34,42.805,6.029,CST-1368DR,4431,4934,11836,01.109,551
2022-12-28T00:42:36,42.805,6.029,CST-1368DR,4430,4933,11838,01.108,551
2022-12-28T00:45:37,42.805,6.029,CST-1368DR,4430,4932,11835,01.109,551
2022-12-28T00:48:39,42.805,6.029,CST-1368DR,4431,4936,11841,01.107,551
2022-12-28T00:51:40,42.805,6.029,CST-1368DR,4431,4936,11840,01.107,551
2022-12-28T00:54:42,42.805,6.029,CST-1368DR,4431,4938,11846,01.105,551
2022-12-28T00:57:44,42.805,6.029,CST-1368DR,4431,4937,11843,01.106,551
2022-12-28T01:00:45,42.805,6.029,CST-1368DR,4431,4940,11850,01.104,551
2022-12-28T01:03:47,42.805,6.029,CST-1368DR,4431,4940,11850,01.104,551
2022-12-28T01:06:48,42.805,6.029,CST-1368DR,4431,4940,11851,01.104,551
2022-12-28T01:09:50,42.805,6.029,CST-1368DR,4431,4940,11851,01.104,551
2022-12-28T01:12:52,42.805,6.029,CST-1368DR,4431,4938,11846,01.105,551
2022-12-28T01:15:53,42.805,6.029,CST-1368DR,4431,4941,11853,01.103,551
2022-12-28T01:18:55,42.805,6.029,CST-1368DR,4431,4939,11848,01.105,551
2022-12-28T01:21:56,42.805,6.029,CST-1368DR,4431,4939,11849,01.104,551
2022-12-28T01:24:58,42.805,6.029,CST-1368DR,4431,4940,11851,01.104,551
2022-12-28T01:27:59,42.805,6.029,CST-1368DR,4431,4940,11850,01.104,551
2022-12-28T01:31:01,42.805,6.029,CST-1368DR,4431,4940,11851,01.104,551
2022-12-28T01:34:03,42.805,6.029,CST-1368DR,4431,4941,11852,01.103,551
2022-12-28T01:37:04,42.805,6.029,CST-1368DR,4431,4933,11834,01.109,551
2022-12-28T01:40:06,42.805,6.029,CST-1368DR,4431,4935,11838,01.108,551
2022-12-28T01:43:07,42.805,6.029,CST-1368DR,4431,4935,11840,01.107,551
2022-12-28T01:46:09,42.805,6.029,CST-1368DR,4431,4938,11845,01.106,551
2022-12-28T01:49:11,42.805,6.029,CST-1368DR,4431,4937,11845,01.106,551
2022-12-28T01:52:12,42.805,6.029,CST-1368DR,4431,4936,11840,01.107,551
2022-12-28T01:55:14,42.805,6.029,CST-1368DR,4431,4935,11839,01.108,551
2022-12-28T01:58:15,42.805,6.029,CST-1368DR,4431,4935,11838,01.108,551
2022-12-28T02:01:17,42.805,6.029,CST-1368DR,4431,4934,11837,01.108,551
2022-12-28T02:04:18,42.805,6.029,CST-1368DR,4431,4938,11846,01.105,551
2022-12-28T02:07:20,42.805,6.029,CST-1368DR,4431,4938,11847,01.105,551
2022-12-28T02:10:22,42.805,6.029,CST-1368DR,4431,4939,11848,01.105,551
2022-12-28T02:13:23,42.805,6.029,CST-1368DR,4431,4938,11847,01.105,551
2022-12-28T02:16:25,42.805,6.029,CST-1368DR,4431,4938,11846,01.105,551
2022-12-28T02:19:26,42.805,6.029,CST-1368DR,4431,4938,11847,01.105,551
2022-12-28T02:22:28,42.805,6.029,CST-1368DR,4431,4936,11841,01.107,551
2022-12-28T02:25:30,42.805,6.029,CST-1368DR,4431,4937,11845,01.106,551
2022-12-28T02:28:31,42.805,6.029,CST-1368DR,4431,4938,11847,01.105,551
2022-12-28T02:31:33,42.805,6.029,CST-1368DR,4431,4937,11845,01.106,551
2022-12-28T02:34:34,42.805,6.029,CST-1368DR,4431,4947,11867,01.098,551
2022-12-28T02:37:36,42.805,6.029,CST-1368DR,4431,4939,11848,01.105,551
2022-12-28T02:40:37,42.805,6.029,CST-1368DR,4431,4935,11839,01.108,551
2022-12-28T02:43:39,42.805,6.029,CST-1368DR,4431,4942,11856,01.102,551
2022-12-28T02:46:41,42.805,6.029,CST-1368DR,4431,4941,11852,01.103,551
2022-12-28T02:49:42,42.805,6.029,CST-1368DR,4431,4942,11856,01.102,551
2022-12-28T02:52:44,42.805,6.029,CST-1368DR,4431,4942,11855,01.102,551
2022-12-28T02:55:45,42.805,6.029,CST-1368DR,4431,4942,11855,01.102,551
2022-12-28T02:58:47,42.805,6.029,CST-1368DR,4431,4940,11851,01.104,551
2022-12-28T03:01:49,42.805,6.029,CST-1368DR,4431,4940,11850,01.104,551
2022-12-28T03:04:50,42.805,6.029,CST-1368DR,4431,4941,11852,01.103,551
2022-12-28T03:07:52,42.805,6.029,CST-1368DR,4431,4938,11847,01.105,551
2022-12-28T03:10:53,42.805,6.029,CST-1368DR,4431,4939,11849,01.104,551
2022-12-28T03:13:55,42.805,6.029,CST-1368DR,4431,4939,11848,01.105,551
2022-12-28T03:16:57,42.805,6.029,CST-1368DR,4431,4939,11848,01.105,551
2022-12-28T03:19:58,42.805,6.029,CST-1368DR,4431,4940,11850,01.104,551
2022-12-28T03:23:00,42.805,6.029,CST-1368DR,4431,4939,11849,01.104,551
2022-12-28T03:26:01,42.805,6.029,CST-1368DR,4431,4941,11854,01.103,551
2022-12-28T03:29:03,42.805,6.029,CST-1368DR,4431,4941,11852,01.103,551
2022-12-28T03:32:04,42.805,6.029,CST-1368DR,4431,4939,11849,01.104,551
2022-12-28T03:35:06,42.805,6.029,CST-1368DR,4431,4941,11853,01.103,551
2022-12-28T03:38:08,42.805,6.029,CST-1368DR,4431,4941,11853,01.103,551
2022-12-28T03:41:09,42.805,6.029,CST-1368DR,4431,4940,11851,01.104,551
2022-12-28T03:44:11,42.805,6.029,CST-1368DR,4430,4939,11852,01.103,551
2022-12-28T03:47:12,42.805,6.029,CST-1368DR,4431,4938,11846,01.105,551
2022-12-28T03:50:14,42.805,6.029,CST-1368DR,4431,4939,11848,01.105,551
2022-12-28T03:53:16,42.805,6.029,CST-1368DR,4431,4940,11850,01.104,551
2022-12-28T03:56:17,42.805,6.029,CST-1368DR,4431,4940,11850,01.104,551
2022-12-28T03:59:19,42.805,6.029,CST-1368DR,4430,4939,11851,01.104,551
2022-12-28T04:02:20,42.805,6.029,CST-1368DR,4431,4941,11853,01.103,551
2022-12-28T04:05:22,42.805,6.029,CST-1368DR,4430,4939,11852,01.103,551
2022-12-28T04:08:23,42.805,6.029,CST-1368DR,4431,4940,11851,01.104,551
2022-12-28T04:11:25,42.805,6.029,CST-1368DR,4431,4940,11851,01.104,551
2022-12-28T04:14:27,42.805,6.029,CST-1368DR,4431,4941,11852,01.103,551
2022-12-28T04:17:28,42.805,6.029,CST-1368DR,4431,4942,11855,01.102,551
2022-12-28T04:20:30,42.805,6.029,CST-1368DR,4431,4941,11854,01.103,551
2022-12-28T04:23:31,42.805,6.029,CST-1368DR,4431,4941,11853,01.103,551
2022-12-28T04:26:33,42.805,6.029,CST-1368DR,4431,4942,11855,01.102,551
2022-12-28T04:29:35,42.805,6.029,CST-1368DR,4431,4942,11855,01.102,551
2022-12-28T04:32:36,42.805,6.029,CST-1368DR,4431,4941,11854,01.103,551
2022-12-28T04:35:38,42.805,6.029,CST-1368DR,4431,4939,11849,01.104,551
2022-12-28T04:38:39,42.805,6.029,CST-1368DR,4431,4939,11849,01.104,551
2022-12-28T04:41:41,42.805,6.029,CST-1368DR,4431,4941,11853,01.103,551
2022-12-28T04:44:42,42.805,6.029,CST-1368DR,4431,4941,11854,01.103,551
2022-12-28T04:47:44,42.805,6.029,CST-1368DR,4431,4944,11861,01.100,551
2022-12-28T04:50:46,42.805,6.029,CST-1368DR,4430,4942,11859,01.101,551
2022-12-28T04:53:47,42.805,6.029,CST-1368DR,4431,4940,11851,01.104,551
2022-12-28T04:56:49,42.805,6.029,CST-1368DR,4431,4940,11851,01.104,551
2022-12-28T04:59:50,42.805,6.029,CST-1368DR,4430,4941,11855,01.102,551
2022-12-28T05:02:52,42.805,6.029,CST-1368DR,4430,4941,11856,01.102,550
2022-12-28T05:05:54,42.805,6.029,CST-1368DR,4430,4941,11856,01.102,551
2022-12-28T05:08:55,42.805,6.029,CST-1368DR,4431,4941,11852,01.103,551
2022-12-28T05:11:57,42.805,6.029,CST-1368DR,4431,4940,11850,01.104,551
2022-12-28T05:14:58,42.805,6.029,CST-1368DR,4430,4942,11859,01.101,551
2022-12-28T05:18:00,42.805,6.029,CST-1368DR,4431,4942,11855,01.102,551
2022-12-28T05:21:01,42.805,6.029,CST-1368DR,4431,4945,11863,01.099,551
2022-12-28T05:24:03,42.805,6.029,CST-1368DR,4430,4942,11859,01.101,551
2022-12-28T05:27:05,42.805,6.029,CST-1368DR,4430,4940,11853,01.103,551
2022-12-28T05:30:06,42.805,6.029,CST-1368DR,4430,4939,11851,01.104,551
2022-12-28T05:33:08,42.805,6.029,CST-1368DR,4430,4941,11856,01.102,551
2022-12-28T05:36:09,42.805,6.029,CST-1368DR,4430,4940,11853,01.103,551
2022-12-28T05:39:11,42.805,6.029,CST-1368DR,4431,4940,11851,01.104,551
2022-12-28T05:42:13,42.805,6.029,CST-1368DR,4431,4939,11849,01.104,551
2022-12-28T05:45:14,42.805,6.029,CST-1368DR,4431,4941,11852,01.103,551
2022-12-28T05:48:16,42.805,6.029,CST-1368DR,4430,4940,11853,01.103,551
2022-12-28T05:51:17,42.805,6.029,CST-1368DR,4430,4940,11854,01.103,551
2022-12-28T05:54:19,42.805,6.029,CST-1368DR,4430,4940,11854,01.103,551
2022-12-28T05:57:20,42.805,6.029,CST-1368DR,4430,4940,11853,01.103,551
2022-12-28T06:00:22,42.805,6.029,CST-1368DR,4430,4939,11852,01.103,551
2022-12-28T06:03:24,42.805,6.029,CST-1368DR,4431,4939,11849,01.104,551
2022-12-28T06:06:25,42.805,6.029,CST-1368DR,4430,4938,11850,01.104,551
2022-12-28T06:09:27,42.805,6.029,CST-1368DR,4430,4939,11852,01.103,551
2022-12-28T06:12:28,42.805,6.029,CST-1368DR,4430,4939,11851,01.104,551
2022-12-28T06:15:30,42.805,6.029,CST-1368DR,4430,4939,11851,01.104,551
2022-12-28T06:18:32,42.805,6.029,CST-1368DR,4430,4939,11850,01.104,551
2022-12-28T06:21:33,42.805,6.029,CST-1368DR,4430,4935,11841,01.107,551
2022-12-28T06:24:35,42.805,6.029,CST-1368DR,4430,4939,11851,01.104,551
2022-12-28T06:27:36,42.805,6.029,CST-1368DR,4430,4939,11851,01.104,551
2022-12-28T06:30:38,42.805,6.029,CST-1368DR,4430,4938,11848,01.105,551
2022-12-28T06:33:39,42.805,6.029,CST-1368DR,4430,4939,11851,01.104,551
2022-12-28T06:36:41,42.805,6.029,CST-1368DR,4430,4939,11850,01.104,551
2022-12-28T06:39:43,42.805,6.029,CST-1368DR,4430,4939,11852,01.103,551
2022-12-28T06:42:44,42.805,6.029,CST-1368DR,4430,4940,11853,01.103,551
2022-12-28T06:45:46,42.805,6.029,CST-1368DR,4430,4935,11841,01.107,551
2022-12-28T06:48:47,42.805,6.029,CST-1368DR,4430,4937,11846,01.105,551
2022-12-28T06:51:49,42.805,6.029,CST-1368DR,4430,4939,11850,01.104,551
2022-12-28T06:54:51,42.805,6.029,CST-1368DR,4430,4939,11851,01.104,551
2022-12-28T06:57:52,42.805,6.029,CST-1368DR,4430,4939,11852,01.103,551
2022-12-28T07:00:54,42.805,6.029,CST-1368DR,4430,4939,11852,01.103,551
2022-12-28T07:03:55,42.805,6.029,CST-1368DR,4430,4939,11851,01.104,551
2022-12-28T07:06:57,42.805,6.029,CST-1368DR,4430,4940,11853,01.103,551
2022-12-28T07:09:59,42.805,6.029,CST-1368DR,4430,4940,11853,01.103,551
2022-12-28T07:13:00,42.805,6.029,CST-1368DR,4430,4940,11853,01.103,551
2022-12-28T07:16:02,42.805,6.029,CST-1368DR,4430,4936,11844,01.106,551
2022-12-28T07:19:03,42.805,6.029,CST-1368DR,4430,4939,11851,01.104,551
2022-12-28T07:22:05,42.805,6.029,CST-1368DR,4430,4938,11850,01.104,551
2022-12-28T07:25:06,42.805,6.029,CST-1368DR,4430,4940,11853,01.103,551
2022-12-28T07:28:08,42.805,6.029,CST-1368DR,4430,4939,11852,01.103,551
2022-12-28T07:31:10,42.805,6.029,CST-1368DR,4430,4939,11851,01.104,551
2022-12-28T07:34:11,42.805,6.029,CST-1368DR,4430,4938,11850,01.104,551
2022-12-28T07:37:13,42.805,6.029,CST-1368DR,4430,4938,11850,01.104,551
2022-12-28T07:40:14,42.805,6.029,CST-1368DR,4430,4938,11849,01.104,551
2022-12-28T07:43:16,42.805,6.029,CST-1368DR,4430,4937,11845,01.106,551
2022-12-28T07:46:18,42.805,6.029,CST-1368DR,4430,4938,11848,01.105,551
2022-12-28T07:49:19,42.805,6.029,CST-1368DR,4430,4937,11845,01.106,551
2022-12-28T07:52:21,42.805,6.029,CST-1368DR,4430,4938,11848,01.105,551
2022-12-28T07:55:22,42.805,6.029,CST-1368DR,4430,4937,11846,01.105,551
2022-12-28T07:58:24,42.805,6.029,CST-1368DR,4430,4938,11849,01.104,551
2022-12-28T08:01:25,42.805,6.029,CST-1368DR,4430,4938,11849,01.104,551
2022-12-28T08:04:27,42.805,6.029,CST-1368DR,4430,4925,11817,01.115,551
2022-12-28T08:07:29,42.805,6.029,CST-1368DR,4430,4935,11842,01.107,551
2022-12-28T08:10:30,42.805,6.029,CST-1368DR,4430,4939,11851,01.104,551
2022-12-28T08:13:32,42.805,6.029,CST-1368DR,4430,4939,11850,01.104,551
2022-12-28T08:16:33,42.805,6.029,CST-1368DR,4430,4938,11848,01.105,551
2022-12-28T08:19:35,42.805,6.029,CST-1368DR,4430,4937,11847,01.105,551
2022-12-28T08:22:37,42.805,6.029,CST-1368DR,4430,4936,11843,01.106,551
2022-12-28T08:25:38,42.805,6.029,CST-1368DR,4430,4937,11846,01.105,551
2022-12-28T08:28:40,42.805,6.029,CST-1368DR,4430,4941,11856,01.102,551
2022-12-28T08:31:41,42.805,6.029,CST-1368DR,4430,4938,11849,01.104,551
2022-12-28T08:34:43,42.805,6.029,CST-1368DR,4430,4937,11846,01.105,551
2022-12-28T08:37:44,42.805,6.029,CST-1368DR,4430,4937,11846,01.105,551
2022-12-28T08:40:46,42.805,6.029,CST-1368DR,4430,4937,11846,01.105,551
2022-12-28T08:43:48,42.805,6.029,CST-1368DR,4430,4936,11843,01.106,551
2022-12-28T08:46:49,42.805,6.029,CST-1368DR,4430,4937,11845,01.106,551
2022-12-28T08:49:51,42.805,6.029,CST-1368DR,4430,4936,11844,01.106,551
2022-12-28T08:52:52,42.805,6.029,CST-1368DR,4430,4936,11843,01.106,551
2022-12-28T08:55:54,42.805,6.029,CST-1368DR,4430,4936,11845,01.106,551
2022-12-28T08:58:56,42.805,6.029,CST-1368DR,4430,4935,11842,01.107,551
2022-12-28T09:01:57,42.805,6.029,CST-1368DR,4430,4936,11843,01.106,551
2022-12-28T09:04:59,42.805,6.029,CST-1368DR,4430,4936,11844,01.106,551
2022-12-28T09:08:00,42.805,6.029,CST-1368DR,4430,4936,11843,01.106,551
2022-12-28T09:11:02,42.805,6.029,CST-1368DR,4430,4935,11842,01.107,551
2022-12-28T09:14:03,42.805,6.029,CST-1368DR,4430,4936,11843,01.106,551
2022-12-28T09:17:05,42.805,6.029,CST-1368DR,4430,4934,11840,01.107,551
2022-12-28T09:20:07,42.805,6.029,CST-1368DR,4430,4935,11842,01.107,551
2022-12-28T09:23:08,42.805,6.029,CST-1368DR,4430,4935,11842,01.107,551
2022-12-28T09:26:10,42.805,6.029,CST-1368DR,4430,4936,11844,01.106,551
2022-12-28T09:29:11,42.805,6.029,CST-1368DR,4430,4936,11844,01.106,551
2022-12-28T09:32:13,42.805,6.029,CST-1368DR,4430,4935,11841,01.107,551
2022-12-28T09:35:15,42.805,6.029,CST-1368DR,4430,4935,11841,01.107,551
2022-12-28T09:38:16,42.805,6.029,CST-1368DR,4430,4935,11842,01.107,551
2022-12-28T09:41:18,42.805,6.029,CST-1368DR,4430,4936,11844,01.106,551
2022-12-28T09:44:19,42.805,6.029,CST-1368DR,4430,4936,11845,01.106,551
2022-12-28T09:47:21,42.805,6.029,CST-1368DR,4430,4935,11842,01.107,551
2022-12-28T09:50:22,42.805,6.029,CST-1368DR,4430,4935,11841,01.107,551
2022-12-28T09:53:24,42.805,6.029,CST-1368DR,4430,4936,11844,01.106,551
2022-12-28T09:56:26,42.805,6.029,CST-1368DR,4430,4936,11844,01.106,551
2022-12-28T09:59:27,42.805,6.029,CST-1368DR,4430,4935,11842,01.107,551
2022-12-28T10:02:29,42.805,6.029,CST-1368DR,4430,4935,11842,01.107,551
2022-12-28T10:05:30,42.805,6.029,CST-1368DR,4430,4935,11841,01.107,551
2022-12-28T10:08:32,42.805,6.029,CST-1368DR,4430,4935,11841,01.107,551
2022-12-28T10:11:34,42.805,6.029,CST-1368DR,4430,4935,11842,01.107,551
2022-12-28T10:14:35,42.805,6.029,CST-1368DR,4430,4935,11842,01.107,551
2022-12-28T10:17:37,42.805,6.029,CST-1368DR,4430,4935,11841,01.107,551
2022-12-28T10:20:38,42.805,6.029,CST-1368DR,4430,4933,11836,01.109,551
2022-12-28T10:23:40,42.805,6.029,CST-1368DR,4430,4934,11840,01.107,551
2022-12-28T10:26:41,42.805,6.029,CST-1368DR,4430,4933,11838,01.108,551
2022-12-28T10:29:43,42.805,6.029,CST-1368DR,4430,4933,11838,01.108,551
2022-12-28T10:32:45,42.805,6.029,CST-1368DR,4430,4934,11840,01.107,551
2022-12-28T10:35:46,42.805,6.029,CST-1368DR,4430,4934,11840,01.107,551
2022-12-28T10:38:48,42.805,6.029,CST-1368DR,4430,4934,11840,01.107,551
2022-12-28T10:41:49,42.805,6.029,CST-1368DR,4430,4935,11842,01.107,551
2022-12-28T10:44:51,42.805,6.029,CST-1368DR,4430,4934,11839,01.108,551
2022-12-28T10:47:53,42.805,6.029,CST-1368DR,4430,4935,11841,01.107,551
2022-12-28T10:50:54,42.805,6.029,CST-1368DR,4430,4934,11839,01.108,551
2022-12-28T10:53:56,42.805,6.029,CST-1368DR,4430,4934,11840,01.107,551
2022-12-28T10:56:57,42.805,6.029,CST-1368DR,4430,4932,11834,01.109,551
2022-12-28T10:59:59,42.805,6.029,CST-1368DR,4430,4934,11840,01.107,551
2022-12-28T11:03:00,42.805,6.029,CST-1368DR,4430,4935,11841,01.107,551
2022-12-28T11:06:02,42.805,6.029,CST-1368DR,4430,4933,11836,01.109,551
2022-12-28T11:09:04,42.805,6.029,CST-1368DR,4430,4935,11842,01.107,551
2022-12-28T11:12:05,42.805,6.029,CST-1368DR,4430,4935,11842,01.107,551
2022-12-28T11:15:07,42.805,6.029,CST-1368DR,4430,4936,11843,01.106,551
2022-12-28T11:18:08,42.805,6.029,CST-1368DR,4430,4935,11842,01.107,551
2022-12-28T11:21:10,42.805,6.029,CST-1368DR,4430,4934,11839,01.108,551
2022-12-28T11:24:12,42.805,6.029,CST-1368DR,4430,4935,11841,01.107,551
2022-12-28T11:27:13,42.805,6.029,CST-1368DR,4430,4935,11841,01.107,551
2022-12-28T11:30:15,42.805,6.029,CST-1368DR,4430,4934,11839,01.108,551
2022-12-28T11:33:16,42.805,6.029,CST-1368DR,4430,4933,11837,01.108,551
2022-12-28T11:36:18,42.805,6.029,CST-1368DR,4430,4934,11839,01.108,551
2022-12-28T11:39:19,42.805,6.029,CST-1368DR,4430,4935,11841,01.107,551
2022-12-28T11:42:21,42.805,6.029,CST-1368DR,4430,4935,11842,01.107,551
2022-12-28T11:45:23,42.805,6.029,CST-1368DR,4430,4931,11833,01.110,551
2022-12-28T11:48:24,42.805,6.029,CST-1368DR,4430,4927,11823,01.113,551
2022-12-28T11:51:26,42.805,6.029,CST-1368DR,4430,4934,11839,01.108,551
2022-12-28T11:54:27,42.805,6.029,CST-1368DR,4430,4936,11844,01.106,551
2022-12-28T11:57:29,42.805,6.029,CST-1368DR,4430,4936,11844,01.106,551
2022-12-28T12:00:31,42.805,6.029,CST-1368DR,4430,4936,11844,01.106,551
2022-12-28T12:03:32,42.805,6.029,CST-1368DR,4430,4935,11841,01.107,551
2022-12-28T12:06:34,42.805,6.029,CST-1368DR,4430,4935,11841,01.107,551
2022-12-28T12:09:35,42.805,6.029,CST-1368DR,4430,4935,11841,01.107,551
2022-12-28T12:12:37,42.805,6.029,CST-1368DR,4430,4937,11846,01.105,551
2022-12-28T12:15:38,42.805,6.029,CST-1368DR,4430,4936,11844,01.106,551
2022-12-28T12:18:40,42.805,6.029,CST-1368DR,4430,4935,11841,01.107,551
2022-12-28T12:21:42,42.805,6.029,CST-1368DR,4430,4934,11840,01.107,551
2022-12-28T12:24:43,42.805,6.029,CST-1368DR,4430,4935,11841,01.107,551
2022-12-28T12:27:45,42.805,6.029,CST-1368DR,4430,4935,11842,01.107,551
2022-12-28T12:30:46,42.805,6.029,CST-1368DR,4430,4935,11841,01.107,551
2022-12-28T12:33:48,42.805,6.029,CST-1368DR,4430,4935,11841,01.107,551
2022-12-28T12:36:50,42.805,6.029,CST-1368DR,4430,4935,11841,01.107,551
2022-12-28T12:39:51,42.805,6.029,CST-1368DR,4430,4935,11841,01.107,551
2022-12-28T12:42:53,42.805,6.029,CST-1368DR,4430,4935,11841,01.107,551
2022-12-28T12:45:54,42.805,6.029,CST-1368DR,4430,4936,11844,01.106,551
2022-12-28T12:48:56,42.805,6.029,CST-1368DR,4430,4935,11841,01.107,551
2022-12-28T12:51:57,42.805,6.029,CST-1368DR,4430,4936,11843,01.106,551
2022-12-28T12:54:59,42.805,6.029,CST-1368DR,4430,4938,11848,01.105,551
2022-12-28T12:58:01,42.805,6.029,CST-1368DR,4430,4938,11849,01.104,551
2022-12-28T13:01:02,42.805,6.029,CST-1368DR,4430,4936,11845,01.106,551
2022-12-28T13:04:04,42.805,6.029,CST-1368DR,4430,4936,11844,01.106,551
2022-12-28T13:07:05,42.805,6.029,CST-1368DR,4430,4936,11844,01.106,551
2022-12-28T13:10:07,42.805,6.029,CST-1368DR,4430,4936,11844,01.106,551
2022-12-28T13:13:09,42.805,6.029,CST-1368DR,4430,4936,11844,01.106,551
2022-12-28T13:16:10,42.805,6.029,CST-1368DR,4430,4936,11844,01.106,551
2022-12-28T13:19:12,42.805,6.029,CST-1368DR,4430,4935,11841,01.107,551
2022-12-28T13:22:13,42.805,6.029,CST-1368DR,4430,4935,11841,01.107,551
2022-12-28T13:25:15,42.805,6.029,CST-1368DR,4430,4936,11843,01.106,551
2022-12-28T13:28:16,42.805,6.029,CST-1368DR,4430,4935,11842,01.107,551
2022-12-28T13:31:18,42.805,6.029,CST-1368DR,4430,4934,11840,01.107,551
2022-12-28T13:34:20,42.805,6.029,CST-1368DR,4430,4934,11840,01.107,551
2022-12-28T13:37:21,42.805,6.029,CST-1368DR,4430,4929,11826,01.112,551
2022-12-28T13:40:23,42.805,6.029,CST-1368DR,4430,4934,11840,01.107,551
2022-12-28T13:43:24,42.805,6.029,CST-1368DR,4430,4934,11839,01.108,551
2022-12-28T13:46:26,42.805,6.029,CST-1368DR,4430,4934,11839,01.108,551
2022-12-28T13:49:28,42.805,6.029,CST-1368DR,4430,4934,11839,01.108,551
2022-12-28T13:52:29,42.805,6.029,CST-1368DR,4430,4933,11837,01.108,551
2022-12-28T13:55:31,42.805,6.029,CST-1368DR,4430,4934,11840,01.107,551
2022-12-28T13:58:32,42.805,6.029,CST-1368DR,4430,4935,11841,01.107,551
2022-12-28T14:01:34,42.805,6.029,CST-1368DR,4430,4934,11839,01.108,551
2022-12-28T14:04:35,42.805,6.029,CST-1368DR,4430,4933,11837,01.108,551
2022-12-28T14:07:37,42.805,6.029,CST-1368DR,4430,4934,11839,01.108,551
2022-12-28T14:10:39,42.805,6.029,CST-1368DR,4430,4934,11839,01.108,551
2022-12-28T14:13:40,42.805,6.029,CST-1368DR,4430,4933,11838,01.108,551
2022-12-28T14:16:42,42.805,6.029,CST-1368DR,4430,4934,11839,01.108,551
2022-12-28T14:19:43,42.805,6.029,CST-1368DR,4430,4933,11837,01.108,551
2022-12-28T14:22:45,42.805,6.029,CST-1368DR,4430,4934,11839,01.108,551
2022-12-28T14:25:47,42.805,6.029,CST-1368DR,4430,4933,11836,01.109,551
2022-12-28T14:28:48,42.805,6.029,CST-1368DR,4430,4933,11836,01.109,551
2022-12-28T14:31:50,42.805,6.029,CST-1368DR,4430,4934,11839,01.108,551
2022-12-28T14:34:51,42.805,6.029,CST-1368DR,4430,4932,11835,01.109,551
2022-12-28T14:37:53,42.805,6.029,CST-1368DR,4430,4931,11832,01.110,551
2022-12-28T14:40:54,42.805,6.029,CST-1368DR,4430,4927,11821,01.114,551
2022-12-28T14:43:56,42.805,6.029,CST-1368DR,4430,4937,11847,01.105,551
2022-12-28T14:46:58,42.805,6.029,CST-1368DR,4430,4934,11840,01.107,551
2022-12-28T14:49:59,42.805,6.029,CST-1368DR,4430,4935,11841,01.107,551
2022-12-28T14:53:01,42.805,6.029,CST-1368DR,4430,4935,11841,01.107,551
2022-12-28T14:56:02,42.805,6.029,CST-1368DR,4430,4935,11841,01.107,551
2022-12-28T14:59:04,42.805,6.029,CST-1368DR,4430,4935,11842,01.107,551
2022-12-28T15:02:06,42.805,6.029,CST-1368DR,4430,4934,11839,01.108,551
2022-12-28T15:05:07,42.805,6.029,CST-1368DR,4430,4934,11839,01.108,551
2022-12-28T15:08:09,42.805,6.029,CST-1368DR,4430,4933,11836,01.109,551
2022-12-28T15:11:10,42.805,6.029,CST-1368DR,4430,4933,11838,01.108,551
2022-12-28T15:14:12,42.805,6.029,CST-1368DR,4430,4933,11837,01.108,551
2022-12-28T15:17:13,42.805,6.029,CST-1368DR,4430,4933,11838,01.108,551
2022-12-28T15:20:15,42.805,6.029,CST-1368DR,4430,4933,11837,01.108,551
2022-12-28T15:23:17,42.805,6.029,CST-1368DR,4430,4932,11834,01.109,551
2022-12-28T15:26:18,42.805,6.029,CST-1368DR,4430,4932,11834,01.109,551
2022-12-28T15:29:20,42.805,6.029,CST-1368DR,4430,4931,11832,01.110,551
2022-12-28T15:32:21,42.805,6.029,CST-1368DR,4430,4934,11839,01.108,551
2022-12-28T15:35:23,42.805,6.029,CST-1368DR,4430,4932,11835,01.109,551
2022-12-28T15:38:25,42.805,6.029,CST-1368DR,4430,4933,11836,01.109,551
2022-12-28T15:41:26,42.805,6.029,CST-1368DR,4430,4933,11836,01.109,551
2022-12-28T15:44:28,42.805,6.029,CST-1368DR,4430,4932,11835,01.109,551
2022-12-28T15:47:29,42.805,6.029,CST-1368DR,4430,4932,11835,01.109,551
2022-12-28T15:50:31,42.805,6.029,CST-1368DR,4430,4928,11824,01.113,551
2022-12-28T15:53:32,42.805,6.029,CST-1368DR,4430,4933,11836,01.109,551
2022-12-28T15:56:34,42.805,6.029,CST-1368DR,4430,4932,11834,01.109,551
2022-12-28T15:59:36,42.805,6.029,CST-1368DR,4430,4933,11837,01.108,551
2022-12-28T16:02:37,42.805,6.029,CST-1368DR,4430,4932,11834,01.109,551
2022-12-28T16:05:39,42.805,6.029,CST-1368DR,4430,4933,11837,01.108,551
2022-12-28T16:08:40,42.805,6.029,CST-1368DR,4430,4933,11837,01.108,551
2022-12-28T16:11:42,42.805,6.029,CST-1368DR,4430,4935,11841,01.107,551
2022-12-28T16:14:44,42.805,6.029,CST-1368DR,4430,4936,11843,01.106,551
2022-12-28T16:17:45,42.805,6.029,CST-1368DR,4430,4933,11836,01.109,551
2022-12-28T16:20:47,42.805,6.029,CST-1368DR,4430,4935,11842,01.107,551
2022-12-28T16:23:48,42.805,6.029,CST-1368DR,4430,4935,11841,01.107,551
2022-12-28T16:26:50,42.805,6.029,CST-1368DR,4430,4935,11841,01.107,551
2022-12-28T16:29:51,42.805,6.029,CST-1368DR,4430,4936,11843,01.106,551
2022-12-28T16:32:53,42.805,6.029,CST-1368DR,4430,4936,11844,01.106,551
2022-12-28T16:35:55,42.805,6.029,CST-1368DR,4430,4935,11842,01.107,551